Tracking 20623 objects as of 3-Apr-2020
HD Live streaming from Space Station
objects crossing your sky now

CZ-3 R/B

Track CZ-3 R/B now!
10-day predictions


NORAD ID: 20559
Int'l Code: 1990-030B
Perigee: 237.9 km
Apogee: 15,967.3 km
Inclination: 30.8 °
Period: 288.8 minutes
Semi major axis: 14473 km
RCS: 10.1665 m2 (large)
Launch date: April 7, 1990
Source: People's Republic of China (PRC)
Launch site: Xichang Space Center, China (XSC)

Note: This is a ROCKET BODY
aabbcc
Your satellite tracking list
Your tracking list is empty




NASA's NSSDC Master Catalog

Two Line Element Set (TLE):
1 20559U 90030B   20094.23988811 +.00019186 +00000-0 +98604-3 0  9993
2 20559 030.8351 060.6862 5433833 003.7395 359.0236 04.98583934114745
Source of the keplerian elements: AFSPC